Dewpoint
69 71 72 74 74 74 73 73 73 73 74 74 73 73 73 72 73 72 71 71 71 71 71 70 70 71 71 71 71 70 70 67 65 66 68 70 68 68 68 68 68 67 68
65 71 72 73 74 74 73 72 74 73 74 75 74 72 72 72 71 71 71 71 71 70 71 70 69 71 70 70 70 69 69 68 66 65 67 68 69 69 68 67 68 68 68
64 70 72 73 73 72 72 72 74 75 75 75 74 73 73 72 70 71 71 71 71 71 70 70 70 69 69 69 69 68 68 69 68 66 66 68 68 68 68 69 68 69 71
62 71 71 72 71 71 70 71 73 75 73 74 74 73 73 71 69 70 70 70 69 70 70 70 70 69 66 65 66 67 68 67 67 67 66 66 66 67 66 65 67 68 69
66 71 70 72 71 74 76 76 75 75 74 74 73 72 68 66 66 66 67 70 68 68 69 69 70 70 69 67 66 66 66 66 67 65 65 65 65 65 65 66 65 66 67
73 75 76 75 74 77 76 74 72 73 74 73 71 69 65 65 65 66 68 68 70 68 68 69 69 66 66 67 68 68 68 65 65 64 65 63 64 64 64 64 64 64 63
73 75 75 76 77 76 75 73 74 73 73 72 69 68 66 63 64 65 66 68 68 67 68 67 66 64 63 64 66 68 68 68 67 65 62 62 62 62 62 62 62 65 62
74 75 76 76 75 74 74 74 74 73 72 71 69 68 66 62 63 63 65 67 66 66 66 66 64 62 61 61 64 67 66 66 66 67 64 63 64 64 64 65 64 64 64
72 73 74 76 75 74 73 73 72 71 70 69 70 69 67 64 61 62 64 68 67 65 63 63 63 61 60 60 64 65 64 65 66 65 65 65 64 64 64 62 60 58 57
73 73 75 75 74 73 72 72 71 70 69 69 68 68 67 64 60 61 62 67 67 66 63 62 62 61 58 57 63 63 61 62 64 64 64 64 65 64 65 62 60 58 57
73 74 73 73 73 72 72 71 70 70 69 69 68 67 66 64 61 61 62 65 66 68 66 65 63 60 59 58 58 62 61 61 64 64 63 62 64 63 63 62 62 59 56
72 72 72 72 71 72 72 70 69 69 68 68 67 66 66 64 61 60 61 61 63 63 63 66 63 60 61 59 60 61 61 62 64 63 62 62 62 62 62 62 60 60 61
71 71 71 71 72 73 71 70 69 68 68 68 69 67 66 65 62 60 60 61 63 64 64 62 62 60 59 60 62 62 61 64 62 62 61 61 62 62 63 62 61 60 59
71 71 71 71 71 72 72 72 70 70 68 66 66 67 66 65 66 64 63 64 63 64 62 62 64 64 63 64 63 63 65 63 63 61 61 62 62 62 61 62 58 57 57
71 71 70 70 71 71 69 67 66 63 64 66 64 64 65 66 64 59 60 63 59 55 55 64 67 64 63 64 65 64 64 64 62 62 61 60 61 61 61 61 59 57 55
69 69 69 69 70 69 66 63 54 53 52 50 54 55 55 54 52 49 47 47 48 51 59 63 65 64 61 61 63 63 63 63 63 61 61 60 60 58 59 60 60 57 56
68 68 67 66 67 67 68 64 62 59 52 51 50 52 51 52 49 47 48 48 48 53 56 59 64 64 62 61 61 60 61 62 62 62 62 61 60 60 59 59 59 59 57
69 63 67 64 65 64 66 64 64 62 61 61 52 53 50 48 47 48 48 50 57 55 57 59 65 65 63 62 62 61 62 61 61 61 62 61 61 60 59 58 58 58 58
70 68 64 64 63 63 64 65 64 64 63 63 61 54 50 50 50 50 50 57 59 60 62 60 63 65 64 64 62 62 60 60 60 62 61 62 60 59 59 56 55 54 56
69 67 63 64 62 61 61 63 64 64 64 63 63 59 59 55 57 58 58 60 62 62 62 64 64 64 64 63 64 63 62 59 61 60 61 60 60 59 59 59 56 57 56
67 66 65 62 62 61 59 57 62 64 64 63 63 61 57 59 60 62 63 62 64 64 61 59 63 66 64 65 64 64 61 61 59 59 60 61 61 59 59 59 59 58 58
65 64 65 62 63 63 59 59 59 62 60 62 63 62 53 62 63 63 63 64 66 65 62 60 61 65 64 63 63 64 61 60 61 60 60 60 61 61 58 58 57 57 57
67 63 64 63 63 61 59 60 59 60 59 62 63 63 59 61 61 60 61 63 65 64 63 63 61 61 61 59 63 63 62 61 61 61 61 61 60 60 59 58 57 57 56
66 62 60 61 61 59 60 58 56 53 55 57 60 59 59 58 60 62 59 58 62 62 64 63 62 61 58 59 63 63 64 63 61 62 61 62 60 58 59 59 59 58 56
63 61 59 59 59 59 59 59 59 57 57 57 55 57 59 60 60 62 60 59 59 60 60 63 64 61 60 61 61 58 52 49 59 56 63 63 61 60 60 60 59 58 58
63 60 60 62 61 59 58 57 57 58 56 57 57 57 58 55 56 58 59 61 61 60 60 59 60 63 61 60 61 55 42 45 53 48 61 60 62 61 60 59 60 59 58
Lifted_Index
-5 -5 -6 -6 -6 -6 -6 -6 -6 -7 -7 -7 -7 -6 -5 -4 -5 -5 -4 -4 -4 -4 -4 -4 -4 -3 -3 -3 -3 -3 -2 -2 -2 -2 -2 -2 -1 -1 -1 -1 -0 1 2
-5 -5 -6 -6 -7 -6 -6 -6 -7 -7 -7 -8 -7 -6 -5 -5 -4 -4 -4 -3 -3 -4 -4 -3 -3 -3 -3 -2 -2 -2 -2 -2 -2 -2 -2 -2 -2 -1 -1 -1 -1 -0 0
-5 -5 -6 -6 -7 -7 -6 -7 -7 -8 -8 -8 -7 -6 -6 -5 -4 -4 -3 -3 -3 -3 -3 -3 -2 -2 -2 -1 -1 -1 -1 -2 -2 -2 -2 -2 -2 -2 -2 -2 -2 -1 -1
-5 -5 -6 -7 -7 -7 -7 -7 -7 -8 -8 -7 -6 -6 -5 -4 -3 -2 -2 -2 -2 -2 -2 -2 -2 -1 -1 -1 -0 -0 -1 -1 -1 -1 -2 -2 -2 -2 -2 -2 -2 -2 -2
-6 -7 -7 -7 -7 -7 -7 -7 -7 -7 -7 -6 -5 -4 -3 -2 -1 -1 -1 -1 -1 -1 -1 -1 -1 -1 -0 -0 -0 -0 -1 -1 -1 -1 -1 -1 -1 -1 -1 -1 -2 -2 -2
-7 -8 -8 -8 -8 -8 -7 -7 -6 -6 -6 -5 -4 -3 -1 -1 -1 -1 -1 -1 -1 -1 -1 -1 -0 0 0 0 -0 -1 -1 -1 -1 -1 -1 -0 -0 0 -0 -1 -1 -1 -2
-8 -8 -8 -8 -8 -8 -7 -6 -6 -6 -5 -4 -3 -1 -0 0 -1 -1 -1 -1 -0 0 -0 0 1 1 1 0 -0 -1 -1 -1 -1 -1 -0 0 1 1 0 -0 -1 -1 -1
-8 -8 -8 -8 -8 -8 -7 -6 -6 -6 -5 -4 -3 -1 0 1 -0 -1 -1 -1 0 1 1 1 2 2 1 0 -0 -1 -1 -1 -1 -0 0 1 1 1 0 -0 -0 -0 -1
-7 -7 -7 -8 -8 -7 -7 -6 -5 -4 -4 -3 -3 -1 0 1 1 -0 -1 -1 -0 1 1 2 3 3 2 1 0 0 0 0 -0 0 1 1 1 1 1 1 1 1 1
-6 -6 -6 -7 -6 -6 -6 -5 -4 -3 -3 -2 -2 -1 0 2 2 1 -0 -1 -1 -0 1 2 3 3 2 2 1 1 1 1 1 1 1 1 1 1 1 2 2 2 3
-5 -5 -5 -5 -5 -5 -4 -4 -3 -2 -2 -2 -1 -1 1 2 3 2 1 -0 -0 0 1 1 2 2 2 2 2 2 2 1 1 1 2 2 2 2 2 3 3 3 4
-5 -5 -4 -4 -4 -4 -3 -3 -2 -2 -2 -2 -1 -0 1 2 3 3 2 1 1 1 1 1 1 2 2 2 2 2 2 2 2 2 2 2 2 2 3 3 3 4 5
-4 -4 -4 -4 -4 -4 -3 -3 -2 -2 -1 -1 -1 -0 1 1 2 1 1 1 1 1 1 1 1 1 1 1 2 2 2 2 2 3 3 3 3 3 3 3 4 4 5
-4 -4 -4 -4 -4 -4 -3 -3 -2 -2 -1 -1 -1 -1 -0 0 0 0 1 1 1 1 1 0 1 1 1 1 1 2 2 2 3 3 3 3 3 3 3 3 4 4 5
-4 -4 -4 -4 -4 -3 -3 -3 -2 -1 -1 -1 -1 -0 -0 0 1 1 2 2 2 2 1 0 0 1 2 2 2 2 2 2 3 3 3 4 4 4 4 4 4 4 5
-4 -4 -3 -3 -3 -3 -3 -2 -0 1 1 1 1 1 1 1 2 3 3 3 2 2 1 1 0 1 2 2 2 2 3 3 3 3 3 4 4 4 4 4 4 4 4
-3 -3 -3 -3 -3 -3 -2 -1 1 1 2 2 2 2 2 3 3 3 3 3 2 1 1 1 0 1 2 2 2 3 3 3 3 3 3 3 3 3 4 4 4 4 4
-3 -3 -2 -2 -2 -2 -2 -1 0 1 1 2 3 3 3 3 3 3 2 2 1 1 1 1 0 0 1 2 2 3 3 3 3 3 2 2 3 3 3 4 4 4 4
-3 -3 -2 -2 -1 -1 -1 -1 -0 -0 0 1 2 2 3 3 3 2 1 1 1 1 0 0 0 0 1 1 2 2 2 3 3 2 2 2 3 3 3 4 4 4 4
-3 -3 -2 -2 -1 -1 -1 -1 -1 -1 -0 1 1 1 2 2 2 1 1 0 0 0 1 0 0 0 1 1 1 2 2 2 3 2 2 2 3 3 3 4 4 4 4
-3 -2 -2 -1 -1 -1 -0 0 -0 -0 -0 0 1 1 1 2 2 1 1 0 -0 0 1 1 0 0 0 1 1 1 2 2 2 2 2 2 2 3 3 3 4 4 4
-2 -2 -2 -1 -1 -1 -0 1 1 0 0 0 0 0 1 1 1 1 1 0 -0 -0 0 1 0 -0 0 1 1 1 1 2 2 2 2 2 2 2 3 3 3 4 4
-2 -2 -1 -1 -1 -0 0 1 1 1 1 1 1 0 1 1 1 1 0 0 -0 -0 0 0 -0 -0 0 1 1 1 1 1 1 1 1 2 2 2 3 3 3 3 4
-3 -2 -1 -1 -0 0 1 1 1 1 1 1 1 1 1 1 1 1 1 1 0 0 0 -0 -0 -1 -0 0 1 1 1 1 1 1 1 1 2 2 3 3 3 3 3
-2 -2 -1 0 1 1 1 1 1 1 1 1 1 2 2 1 1 1 1 1 1 0 0 -0 -0 -1 -1 -0 -0 0 1 2 2 2 1 1 2 3 3 3 2 3 3
-2 -2 -1 0 1 1 1 1 1 1 1 1 2 2 2 2 2 2 1 1 1 0 0 0 -0 -1 -1 -1 -1 -0 1 1 2 2 2 2 2 3 3 3 2 2 3